[keps] orb09358.2l.amsat
Ray Hoad
r.hoad at att.net
Thu Dec 24 17:12:42 PST 2009
SB KEPS @ AMSAT $ORB09358.N
2Line Orbital Elements 09358.AMSAT
HR AMSAT ORBITAL ELEMENTS FOR AMATEUR SATELLITES IN NASA FORMAT
FROM WA5QGD FORT WORTH,TX December 24, 2009
Send Subscribe/unsubscribe to KEPS at
http://www.amsat.org/mailman/listinfo/keps
BID: ORB09358.N
DECODE 2-LINE ELSETS WITH THE FOLLOWING KEY:
1 AAAAAU 00 0 0 BBBBB.BBBBBBBB .CCCCCCCC 00000-0 00000-0 0 DDDZ
2 AAAAA EEE.EEEE FFF.FFFF GGGGGGG HHH.HHHH III.IIII JJ.JJJJJJJJKKKKKZ
KEY: A-CATALOGNUM B-EPOCHTIME C-DECAY D-ELSETNUM E-INCLINATION F-RAAN
G-ECCENTRICITY H-ARGPERIGEE I-MNANOM J-MNMOTION K-ORBITNUM Z-CHECKSUM
TO ALL RADIO AMATEURS BT
AO-07
1 07530U 74089B 09357.62882473 -.00000027 00000-0 10000-3 0 6617
2 07530 101.4125 015.2439 0011848 258.7270 101.2470 12.53577335606455
FO-29
1 24278U 96046B 09357.61572829 .00000091 00000-0 13041-3 0 2076
2 24278 098.5228 205.9167 0350085 219.1927 138.3381 13.52947225659367
SO-33
1 25509U 98061B 09357.54388330 .00000304 00000-0 46658-4 0 6147
2 25509 031.4333 061.7542 0354048 194.1937 164.8489 14.28276901582929
RS-22
1 27939U 03042A 09358.69863251 .00000081 00000-0 24547-4 0 9708
2 27939 097.9150 226.3162 0012617 250.2712 109.7131 14.63368281333431
VO-52
1 28650U 05017B 09357.82259757 .00000181 00000-0 29308-4 0 3937
2 28650 097.7183 052.8738 0027932 128.5689 231.7992 14.81659857250726
SO-67
1 35870U 09049F 09358.18996233 .00000594 00000-0 28287-4 0 2869
2 35870 097.3584 046.3669 0010754 318.7240 125.6434 15.22895989 14836
HO-68
1 36122U 09072B 09358.20137579 -.00000045 00000-0 00000 0 0 294
2 36122 100.4976 055.2221 0007423 019.1656 340.9742 13.16280162 1194
UO-11
1 14781U 84021B 09358.22842779 .00000022 00000-0 10063-4 0 1341
2 14781 098.0814 044.2026 0010114 083.0769 277.1641 14.79755347385939
AO-16
1 20439U 90005D 09357.86047079 .00000000 00000-0 15547-4 0 7801
2 20439 098.3076 317.9062 0010681 332.2006 027.8615 14.31842900 40299
LO-19
1 20442U 90005G 09357.81664318 -.00000000 00000-0 15256-4 0 06897
2 20442 098.2689 324.3785 0011412 326.9810 033.0644 14.32076598040454
AO-27
1 22825U 93061C 09357.58102745 .00000023 00000-0 25605-4 0 4154
2 22825 098.4662 305.2850 0009285 068.9660 291.2507 14.29281721846964
IO-26
1 22826U 93061D 09357.81775154 .00000016 00000-0 22958-4 0 1495
2 22826 098.4579 306.1851 0009835 063.0891 297.1324 14.29535528847102
GO-32
1 25397U 98043D 09357.54768378 -.00000109 00000-0 -30149-4 0 00716
2 25397 098.3164 009.6461 0002088 067.3033 292.8359 14.23168178595069
NO-44
1 26931U 01043C 09357.39191279 -.00000043 00000-0 15324-4 0 3445
2 26931 067.0536 296.8915 0006980 265.7775 094.2547 14.29577078429626
SO-50
1 27607U 02058C 09357.80556063 -.00000026 00000-0 17721-4 0 00626
2 27607 064.5563 169.1927 0044749 153.2557 207.0841 14.71483576376570
CO-55
1 27844U 03031E 09358.08179706 .00000031 00000-0 34852-4 0 7410
2 27844 098.7109 004.5603 0009588 320.5375 039.5102 14.20674244336224
CO-57
1 27848U 03031J 09357.73389326 .00000004 00000-0 22443-4 0 06924
2 27848 098.7168 003.2887 0009649 326.0600 033.9941 14.20471177336132
AO-51
1 28375U 04025K 09357.71147622 .00000007 00000-0 15002-4 0 5625
2 28375 098.0529 356.2904 0083299 270.5069 088.6578 14.40663263288240
CO-56
1 28941U 06005C 09297.68475575 .14491492 29743-5 25760-3 0 5565
2 28941 098.0955 138.9518 0011688 319.8691 040.7485 16.46998778207909
GENESAT1
1 29655U 06058C 09357.59693677 .00024142 00000-0 18606-3 0 09113
2 29655 040.0218 072.3979 0003541 126.2206 233.8938 15.71292202172213
CP3
1 31129U 07012N 09358.34626388 .00000150 00000-0 45072-4 0 4174
2 31129 097.9644 042.0615 0103240 056.4025 304.6974 14.52194012142488
CO-65
1 32785U 08021C 09357.10010303 .00000400 00000-0 57648-4 0 05587
2 32785 097.9204 059.2617 0015632 134.5018 225.7416 14.81560688089413
KKS-1
1 33493U 09002B 09358.45773843 .00000353 00000-0 52795-4 0 511
2 33493 098.0702 111.6874 0019773 349.9838 010.0980 14.80805283 49627
SOHLA-1
1 33496U 09002E 09357.48288457 -.00000029 00000-0 33703-5 0 9810
2 33496 098.0485 103.9828 0007465 047.2898 312.8941 14.69460229 49073
NOAA-10
1 16969U 86073A 09357.98118621 -.00000111 00000-0 -27324-4 0 08902
2 16969 098.6749 023.4338 0012544 006.9928 353.1426 14.27401730210588
NOAA-11
1 19531U 88089A 09357.79633826 .00000268 00000-0 16106-3 0 09027
2 19531 098.7780 084.7700 0010951 290.5039 069.4966 14.14911886096334
NOAA-12
1 21263U 91032A 09357.53898514 .00000032 00000-0 32420-4 0 03833
2 21263 098.7689 005.6832 0011787 320.4256 039.6063 14.25608068967372
MET-3/5
1 21655U 91056A 09357.61605415 .00000051 00000-0 10000-3 0 07024
2 21655 082.5569 072.6862 0014865 070.6391 289.6251 13.17021504882563
MET-2/21
1 22782U 93055A 09357.64161143 -.00000028 00000-0 -38733-4 0 06507
2 22782 082.5473 031.7165 0022564 171.4906 188.6646 13.83640110823809
OKEAN-4
1 23317U 94066A 09358.34025199 .00000096 00000-0 88056-5 0 1077
2 23317 082.5400 157.0395 0023844 097.1392 263.2546 14.82749175820544
NOAA-14
1 23455U 94089A 09357.55737576 -.00000057 00000-0 -67893-5 0 08797
2 23455 098.8945 074.4211 0009620 019.2817 340.8745 14.13774813772688
NOAA-15
1 25338U 98030A 09357.80347846 -.00000056 00000-0 -54751-5 0 02066
2 25338 098.6028 343.0315 0009964 221.8709 138.1700 14.24797893603779
RESURS
1 25394U 98043A 09358.13131071 -.00000035 00000-0 22818-5 0 3897
2 25394 098.3190 020.6278 0002038 039.7986 320.3341 14.24191496595438
FENGYUN1
1 25730U 99025A 09358.37406430 .00000979 00000-0 59785-3 0 9312
2 25730 098.7738 323.0169 0024139 035.3251 324.9506 14.08151778547088
OKEAN-0
1 25860U 99039A 09357.48436696 .00000045 00000-0 14194-4 0 08699
2 25860 097.8099 331.3919 0000665 051.9956 308.1302 14.73603864561029
NOAA-16
1 26536U 00055A 09357.84392403 -.00000160 00000-0 -61196-4 0 06846
2 26536 099.1773 006.1185 0011338 108.9192 251.3161 14.12541349477075
NOAA-17
1 27453U 02032A 09357.63269370 -.00000000 00000-0 18191-4 0 06822
2 27453 098.4583 049.9223 0010726 292.3353 067.6709 14.24116563389718
NOAA-18
1 28654U 05018A 09357.69567283 .00000218 00000-0 14493-3 0 01648
2 28654 098.9308 299.6554 0014234 185.0580 175.0454 14.11312635236683
NOAA-19
1 33591U 09005A 09357.64563062 -.00000153 00000-0 -61397-4 0 03716
2 33591 098.7704 298.6750 0015104 067.8429 292.4327 14.11009814045155
HUBBLE
1 20580U 90037B 09357.30213847 .00000407 00000-0 18376-4 0 4924
2 20580 028.4717 307.9826 0003481 131.1307 228.9628 15.00869724878296
ISS
1 25544U 98067A 09358.92155093 .00015188 00000-0 95524-4 0 2387
2 25544 051.6442 046.3508 0008002 111.8756 254.1167 15.76927485636015
CO-58
1 28895U 05043F 09357.65514618 .00000223 00000-0 56020-4 0 04713
2 28895 098.0357 242.6961 0019050 114.6048 245.7146 14.59827976221377
FALCON
1 30776U 07006E 09357.44415891 .00000534 00000-0 41547-4 0 07306
2 30776 035.4341 031.0361 0000609 060.9744 299.1045 15.03402717153597
MAST
1 31126U 07012K 09357.68731240 .00000029 00000-0 16940-4 0 7610
2 31126 097.9628 043.5485 0095437 052.1420 308.8348 14.53540593142568
CAPE1
1 31130U 07012P 09357.63698843 .00000132 00000-0 41003-4 0 07748
2 31130 097.9622 041.2690 0103637 058.7348 302.3928 14.52117944142183
COMPASS
1 32787U 08021E 09358.20719130 .00000435 00000-0 61822-4 0 5515
2 32787 097.9172 060.1867 0016617 132.2283 228.0417 14.81721367 89588
AAUSAT2
1 32788U 08021F 09357.68626328 .00000772 00000-0 10411-3 0 5435
2 32788 097.9195 059.7634 0016268 135.1675 225.0876 14.81853405 89517
DO-64
1 32789U 08021G 09357.63863142 .00000706 00000-0 95717-4 0 05607
2 32789 097.9235 060.0161 0016334 133.7669 226.4869 14.81899981089509
CO-66
1 32791U 08021J 09358.20534545 .00000221 00000-0 34869-4 0 5407
2 32791 097.9183 060.2144 0016657 129.8658 230.4089 14.81532405 89547
RS-30
1 32953U 08025A 09357.82324765 .00000010 00000-0 00000-0 0 04837
2 32953 082.5015 138.7208 0019625 124.4655 235.8280 12.43003224071955
TACSAT-3
1 35001U 09028A 09358.95719122 .00003173 00000-0 83289-4 0 1753
2 35001 040.4545 179.1366 0021736 142.6580 217.5750 15.39841612 33756
PHARMSAT
1 35002U 09028B 09357.94325595 .00002962 00000-0 76296-4 0 01686
2 35002 040.4666 183.9795 0024787 140.0282 220.2363 15.40532422033603
HAWKSAT1
1 35003U 09028C 09357.90331526 .00006144 00000-0 14564-3 0 01746
2 35003 040.4609 182.6036 0023783 145.0377 215.2006 15.41811125033621
CP6
1 35004U 09028D 09357.89343831 .00007214 00000-0 16882-3 0 01684
2 35004 040.4614 182.5352 0023061 145.2609 214.9711 15.42038031033613
AEROCUB3
1 35005U 09028E 09358.89354245 .00011812 00000-0 27337-3 0 1739
2 35005 040.4719 177.1638 0023133 149.0768 211.1418 15.41952723 33766
DRAGNSAT
1 35690U 09038B 09357.58592141 .00061231 12546-4 20061-3 0 1485
2 35690 051.6387 042.4374 0003563 327.7842 032.2955 15.90930755 23161
POLLUX
1 35693U 09038E 09357.60320151 .00054012 00000-0 18331-3 0 1564
2 35693 051.6384 043.3293 0000926 269.9588 090.1263 15.89326541 23126
CASTOR
1 35694U 09038F 09357.58956553 .00021765 00000-0 95932-4 0 1374
2 35694 051.6408 045.5564 0002313 224.8731 135.2108 15.84461577 23090
METEOR-M
1 35865U 09049A 09357.62725017 .00000176 00000-0 10000-3 0 846
2 35865 098.7854 047.4614 0002740 137.6542 222.4803 14.21828393 13777
/EX
More information about the Keps
mailing list